Location: Unspecified
(0.0000°N, 0.0000°E)
Time: 23:58:27
(UTC+00:00)

deb West Ford - Visible Passes

Search period start: 18 May 2026 00:00
Search period end: 28 May 2026 00:00
Orbit: 3085 x 4156 km, 87.6° (Epoch: 27 February)

Date Brightness Start Highest point End Pass type
(mag) Time Alt. Az. Time Alt. Az. Time Alt. Az.
18 May ? 18:09:35 10° S 18:30:59 82° E 18:52:42 10° N visible
18 May ? 21:04:11 10° SW 21:14:53 16° W 21:25:57 10° WNW visible
19 May ? 04:08:42 10° ENE 04:13:00 11° E 04:17:15 10° ESE visible
19 May ? 19:02:12 10° S 19:22:55 63° W 19:44:15 10° NNW visible
20 May ? 04:51:28 10° NE 05:04:59 32° E 05:18:09 10° SSE visible
20 May ? 19:57:01 10° SSW 20:14:48 35° W 20:33:18 10° NW visible
21 May ? 18:01:12 10° S 18:22:43 85° E 18:44:24 10° N visible
21 May ? 20:56:59 10° SW 21:06:31 15° W 21:16:22 10° WNW visible
22 May ? 03:58:34 10° ENE 04:04:28 13° E 04:10:16 10° ESE visible
22 May ? 18:53:57 10° S 19:14:36 60° W 19:35:45 10° NNW visible
23 May ? 04:42:39 10° NNE 04:56:25 34° E 05:09:55 10° SSE visible
23 May ? 19:48:59 10° SSW 20:06:27 33° W 20:24:32 10° NW visible
24 May ? 05:32:25 10° NNE 05:48:25 67° E 06:04:18 10° S visible
24 May ? 17:52:45 10° S 18:14:22 88° E 18:36:00 10° N visible
24 May ? 20:49:56 10° WSW 20:58:06 13° W 21:06:28 10° WNW visible
25 May ? 03:48:49 10° ENE 03:55:52 14° E 04:02:50 10° ESE visible
25 May ? 18:45:40 10° SSW 19:06:14 58° W 19:27:11 10° NNW visible
26 May ? 04:33:47 10° NNE 04:47:47 36° E 05:01:36 10° SSE visible
26 May ? 19:40:54 10° SSW 19:58:02 31° W 20:15:40 10° NW visible
27 May ? 05:23:45 10° N 05:39:46 70° E 05:55:47 10° S visible
27 May ? 17:44:18 10° S 18:05:58 89° W 18:27:33 10° N visible
27 May ? 20:43:14 10° WSW 20:49:38 12° W 20:56:08 10° WNW visible
